Broomfield, CO

6:35 AM MST on November 12, 2019 (GMT -0700)
Jeffco

Weather History for KBJC - October, 2019

Change the Weather History Date:

Friday, October 18, 2019

  Actual Average Record
Temperature  
Mean Temperature 55 °F -  
Max Temperature 64 °F 62 °F 84 °F (2003)
Min Temperature 46 °F 39 °F 24 °F (2006)
Degree Days  
Heating Degree Days 10    
Growing Degree Days 5 (Base 50)    
Moisture  
Dew Point 21 °F    
Average Humidity 25    
Maximum Humidity 34    
Minimum Humidity 16    
Precipitation  
Precipitation 0.00 in - - ()
Sea Level Pressure  
Sea Level Pressure 29.70 in    
Wind  
Wind Speed 8 mph (WSW)    
Max Wind Speed 29 mph    
Max Gust Speed 39 mph    
Visibility 10 miles    
Events      
Averages and records for this station are not official NWS values.
T = Trace of Precipitation, MM = Missing Value Source: NWS Daily Summary

Daily Weather History Graph

Daily Weather History Graph

Search for Another Location

Airport or City:

Astronomy

Oct. 18, 2019 Rise Set
Actual Time 7:13 AM MDT 6:16 PM MDT
Civil Twilight 6:46 AM MDT 6:44 PM MDT
Nautical Twilight 6:15 AM MDT 7:15 PM MDT
Astronomical Twilight 5:43 AM MDT 7:46 PM MDT
Moon 9:35 PM MDT (10/18) 11:49 AM MDT (10/18)
Length of Visible Light 11h 57m
Length of Day
11h 02m
Waning Gibbous, 78% of the Moon is Illuminated
Oct 18
Waning Gibbous
Oct 21
Last Quarter
Oct 27
New
Nov 4
First Quarter
Nov 12
Full

Hourly Weather History & Observations

Time (MDT) Temp. Windchill Dew Point Humidity Pressure Visibility Wind Dir Wind Speed Gust Speed Precip Events Conditions
12:12 AM 59.0 °F - 17.6 °F 20% 29.63 in 10.0 mi Calm Calm - N/A   Clear
12:30 AM 59.0 °F - 15.8 °F 19% 29.63 in 10.0 mi South 4.6 mph - N/A   Clear
12:53 AM 60.8 °F - 17.6 °F 19% 29.63 in 10.0 mi East 3.5 mph - N/A   Clear
1:12 AM 62.6 °F - 15.8 °F 16% 29.62 in 10.0 mi West 15.0 mph 18.4 mph N/A   Clear
1:30 AM 59.0 °F - 14.0 °F 17% 29.61 in 10.0 mi West 4.6 mph - N/A   Clear
1:54 AM 60.8 °F - 14.0 °F 16% 29.62 in 10.0 mi ESE 5.8 mph - N/A   Clear
2:13 AM 59.0 °F - 14.0 °F 17% 29.62 in 10.0 mi SSE 4.6 mph - N/A   Clear
2:31 AM 60.8 °F - 17.6 °F 19% 29.61 in 10.0 mi South 3.5 mph - N/A   Clear
2:49 AM 55.4 °F - 17.6 °F 23% 29.61 in 10.0 mi SSE 4.6 mph - N/A   Clear
3:12 AM 55.4 °F - 17.6 °F 23% 29.61 in 10.0 mi SW 3.5 mph - N/A   Clear
3:30 AM 57.2 °F - 21.2 °F 25% 29.60 in 10.0 mi SSW 5.8 mph - N/A   Clear
3:54 AM 59.0 °F - 24.8 °F 27% 29.60 in 10.0 mi South 6.9 mph - N/A   Clear
4:12 AM 59.0 °F - 26.6 °F 29% 29.60 in 10.0 mi Calm Calm - N/A   Clear
4:30 AM 59.0 °F - 26.6 °F 29% 29.60 in 10.0 mi NW 6.9 mph - N/A   Clear
4:54 AM 60.8 °F - 26.6 °F 27% 29.60 in 10.0 mi Calm Calm - N/A   Clear
5:12 AM 62.6 °F - 26.6 °F 26% 29.60 in 10.0 mi SW 4.6 mph - N/A   Clear
5:30 AM 60.8 °F - 26.6 °F 27% 29.60 in 10.0 mi Calm Calm - N/A   Clear
5:50 AM 62.6 °F - 26.6 °F 26% 29.61 in 10.0 mi Calm Calm - N/A   Clear
5:54 AM 62.6 °F - 26.6 °F 26% 29.61 in 10.0 mi Calm Calm - N/A   Clear
7:18 AM 55.4 °F - 26.6 °F 33% 29.60 in 30.0 mi WSW 9.2 mph - N/A   Partly Cloudy
7:45 AM 55.4 °F - 26.6 °F 33% 29.61 in 30.0 mi NNW 3.5 mph - N/A   Scattered Clouds
8:45 AM 64.4 °F - 28.4 °F 26% 29.65 in 30.0 mi WNW 23.0 mph 34.5 mph N/A   Scattered Clouds
9:50 AM 59.0 °F - 28.4 °F 31% 29.67 in 20.0 mi NE 16.1 mph - N/A   Scattered Clouds
10:48 AM 60.8 °F - 30.2 °F 31% 29.69 in 10.0 mi North 9.2 mph - N/A   Scattered Clouds
12:47 PM 59.0 °F - 30.2 °F 34% 29.73 in 10.0 mi East 4.6 mph - N/A   Mostly Cloudy
1:45 PM 64.4 °F - 24.8 °F 22% 29.70 in 10.0 mi West 26.5 mph 39.1 mph N/A   Mostly Cloudy
2:47 PM 59.0 °F - 21.2 °F 23% 29.72 in 25.0 mi West 28.8 mph 36.8 mph N/A   Mostly Cloudy
3:47 PM 60.8 °F - 17.6 °F 19% 29.75 in 30.0 mi WSW 24.2 mph 34.5 mph N/A   Mostly Cloudy
4:45 PM 59.0 °F - 15.8 °F 19% 29.77 in 10.0 mi WSW 19.6 mph 27.6 mph N/A   Mostly Cloudy
5:45 PM 57.2 °F - 12.2 °F 17% 29.80 in 10.0 mi West 15.0 mph 21.9 mph N/A   Mostly Cloudy
6:47 PM 51.8 °F - 17.6 °F 26% 29.82 in 30.0 mi West 27.6 mph 34.5 mph N/A   Scattered Clouds
7:55 PM 50.0 °F - 19.4 °F 30% 29.86 in 30.0 mi West 28.8 mph 36.8 mph N/A   Partly Cloudy
8:50 PM 50.0 °F - 17.6 °F 28% 29.88 in 30.0 mi WSW 18.4 mph 26.5 mph N/A   Clear
9:50 PM 48.2 °F - 17.6 °F 30% 29.90 in 30.0 mi West 25.3 mph 32.2 mph N/A   Partly Cloudy
10:12 PM 46.4 °F 39.8 °F 19.4 °F 34% 29.91 in 10.0 mi WSW 16.1 mph - N/A   Clear
10:30 PM 46.4 °F 39.5 °F 19.4 °F 34% 29.91 in 10.0 mi WSW 17.3 mph 23.0 mph N/A   Clear
11:12 PM 50.0 °F - 15.8 °F 26% 29.91 in 10.0 mi SW 17.3 mph 26.5 mph N/A   Clear
11:30 PM 48.2 °F - 17.6 °F 30% 29.91 in 10.0 mi WSW 6.9 mph 10.4 mph N/A   Clear
11:54 PM 46.4 °F 41.9 °F 17.6 °F 32% 29.91 in 10.0 mi WSW 9.2 mph - N/A   Clear